Weather in Key West

United States     24°33′19″N   81°48′17″W
temp.,
°C
wind,
m/s
gust,
m/s
humid.,
%
clouds,
%
prec.,
mm/h
press.,
hPa
HPBL,
m
18 september, sat
sat1823:00+29ene4372100 0.0 1018465
02:00+28e337389 0.5 1017265
05:00+28ese337298 1.5 1017518
08:00+28e3369100 1.5 1017736
11:00+28e337265 0.0 1018690
14:00+29ene33715 0.0 1017754
17:00+29ene226826 0.0 1015707
20:00+29ene126715 0.0 1016545
19 september, sun
sun1923:00+29ne226964 0.0 1017547
02:00+28nne337093 0.0 1016641
05:00+28nne3471100 0.0 1015729
08:00+28ne4472100 0.0 1016838
11:00+29ene44727 0.0 1017810
14:00+28ene337278 0.0 1016722
17:00+29ene337268 0.0 1014757
20:00+29ene237199 0.0 1015686
20 september, mon
mon2023:00+29ne447252 0.0 1016658
02:00+28ne5574100 0.8 1015737
05:00+28ene5574100 0.0 1014809
08:00+28ene567399 0.0 1015858
11:00+29ene56715 0.0 1017890
14:00+29e55735 0.0 1016898
17:00+29e44755 0.1 1014745
20:00+29e3474100 1.0 1015605
21 september, tue
tue2123:00+29ne8876100 2.5 1016750
02:00+28ene9981100 2.6 1015619
05:00+29e8975100 0.1 1014869
08:00+29ese8876100 0.7 1015858
11:00+29e667589 1.3 1017769
14:00+28e4575100 4.3 1016479
17:00+29ene4471100 1.6 1015772
20:00+29ene5573100 1.6 1015832
22 september, wed
wed2223:00+29ene557353 0.1 1016826
02:00+29ene567527 0.1 1014893
05:00+28ene447369 0.0 1014869
08:00+28ene347249 0.0 1014838
11:00+28ene3374100 0.4 1015582
14:00+28ne227292 1.1 1013459
17:00+28n2271100 0.1 1012679
20:00+28n337286 0.1 1013542